• In Czech Republic
  • List of Countries
  • For 7 days
  • Water Temperature
  • Satellite Maps
  • Weather Map
  • Weather Widgets
  • user-avatar
    Login

    Hourly Weather Idzhewan

    Today, 17 November, Friday

    Time Temperature Precipitation Wind Pressure Humidity
    00:00 +8°C° 0 mm 0 mps 697 mmHg 74%
    01:00 +8°C° 0 mm 0 mps 697 mmHg 75%
    02:00 +7°C° 0 mm 0 mps 697 mmHg 76%
    03:00 +7°C° 0 mm 0 mps 697 mmHg 75%
    04:00 +7°C° 0 mm 0 mps 697 mmHg 75%
    05:00 +7°C° 0 mm 0 mps 697 mmHg 75%
    06:00 +6°C° 0 mm 0 mps 697 mmHg 76%
    07:00 +8°C° 0 mm 0 mps 697 mmHg 69%
    08:00 +9°C° 0 mm 0 mps 697 mmHg 63%
    09:00 +12°C° 0 mm 1 mps 697 mmHg 57%
    10:00 +12°C° 0 mm 1 mps 697 mmHg 54%
    11:00 +13°C° 0 mm 1 mps 697 mmHg 50%
    12:00 +14°C° 0 mm 2 mps 697 mmHg 47%
    13:00 +14°C° 0 mm 2 mps 696 mmHg 48%
    14:00 +14°C° 0 mm 2 mps 696 mmHg 49%
    15:00 +14°C° 0 mm 2 mps 696 mmHg 51%
    16:00 +13°C° 0 mm 1 mps 696 mmHg 59%
    17:00 +11°C° 0 mm 1 mps 696 mmHg 67%
    18:00 +10°C° 0 mm 1 mps 696 mmHg 75%
    19:00 +10°C° 0 mm 1 mps 696 mmHg 77%
    20:00 +8°C° 0 mm 0 mps 697 mmHg 79%
    21:00 +8°C° 0 mm 0 mps 697 mmHg 81%
    22:00 +8°C° 0 mm 0 mps 697 mmHg 82%
    23:00 +9°C° 0 mm 1 mps 697 mmHg 84%

    Tomorrow, 18 November, Saturday

    Time Temperature Precipitation Wind Pressure Humidity
    00:00 +9°C° 0 mm 1 mps 697 mmHg 85%
    01:00 +9°C° 0 mm 1 mps 697 mmHg 86%
    02:00 +9°C° 0 mm 1 mps 697 mmHg 87%
    03:00 +9°C° 0 mm 1 mps 697 mmHg 87%
    04:00 +8°C° 0.1 mm 1 mps 697 mmHg 87%
    05:00 +8°C° 0.1 mm 1 mps 697 mmHg 87%
    06:00 +8°C° 0.1 mm 1 mps 697 mmHg 86%
    07:00 +9°C° 0 mm 1 mps 697 mmHg 82%
    08:00 +10°C° 0 mm 1 mps 697 mmHg 77%
    09:00 +10°C° 0 mm 1 mps 698 mmHg 72%
    10:00 +11°C° 0 mm 1 mps 697 mmHg 68%
    11:00 +12°C° 0 mm 2 mps 697 mmHg 64%
    12:00 +13°C° 0 mm 2 mps 697 mmHg 60%
    13:00 +13°C° 0 mm 2 mps 697 mmHg 60%
    14:00 +13°C° 0 mm 2 mps 696 mmHg 61%
    15:00 +13°C° 0 mm 2 mps 696 mmHg 61%
    16:00 +12°C° 0 mm 1 mps 696 mmHg 66%
    17:00 +11°C° 0 mm 1 mps 696 mmHg 70%
    18:00 +9°C° 0 mm 1 mps 696 mmHg 75%
    19:00 +9°C° 0 mm 1 mps 696 mmHg 73%
    20:00 +9°C° 0 mm 1 mps 696 mmHg 71%
    21:00 +9°C° 0 mm 1 mps 696 mmHg 69%
    22:00 +9°C° 0 mm 1 mps 696 mmHg 67%
    23:00 +9°C° 0 mm 1 mps 696 mmHg 64%

    Day after tomorrow, 19 November, Sunday

    Time Temperature Precipitation Wind Pressure Humidity
    00:00 +7°C° 0 mm 2 mps 696 mmHg 62%
    01:00 +7°C° 0 mm 2 mps 696 mmHg 60%
    02:00 +7°C° 0 mm 2 mps 695 mmHg 59%
    03:00 +7°C° 0 mm 2 mps 695 mmHg 57%
    04:00 +7°C° 0 mm 2 mps 695 mmHg 56%
    05:00 +7°C° 0 mm 2 mps 695 mmHg 55%
    06:00 +7°C° 0 mm 2 mps 695 mmHg 54%
    07:00 +9°C° 0 mm 2 mps 695 mmHg 50%
    08:00 +10°C° 0 mm 2 mps 695 mmHg 46%
    09:00 +12°C° 0 mm 2 mps 695 mmHg 41%
    10:00 +13°C° 0 mm 2 mps 695 mmHg 39%
    11:00 +14°C° 0 mm 2 mps 694 mmHg 36%
    12:00 +16°C° 0 mm 2 mps 694 mmHg 34%
    13:00 +15°C° 0 mm 2 mps 694 mmHg 36%
    14:00 +15°C° 0 mm 2 mps 693 mmHg 39%
    15:00 +15°C° 0 mm 2 mps 693 mmHg 41%
    16:00 +14°C° 0 mm 2 mps 693 mmHg 45%
    17:00 +13°C° 0 mm 2 mps 693 mmHg 48%
    18:00 +12°C° 0 mm 1 mps 693 mmHg 51%
    19:00 +12°C° 0 mm 2 mps 693 mmHg 52%
    20:00 +10°C° 0 mm 2 mps 693 mmHg 53%
    21:00 +10°C° 0 mm 2 mps 693 mmHg 54%
    22:00 +9°C° 0 mm 2 mps 693 mmHg 54%
    23:00 +9°C° 0 mm 2 mps 693 mmHg 55%

    20 November, Monday

    Time Temperature Precipitation Wind Pressure Humidity
    00:00 +9°C° 0 mm 2 mps 693 mmHg 55%
    01:00 +9°C° 0 mm 2 mps 693 mmHg 55%
    02:00 +9°C° 0 mm 2 mps 693 mmHg 56%
    03:00 +8°C° 0 mm 3 mps 693 mmHg 56%
    04:00 +8°C° 0 mm 3 mps 693 mmHg 57%
    05:00 +8°C° 0 mm 3 mps 693 mmHg 58%
    06:00 +8°C° 0 mm 3 mps 693 mmHg 59%
    07:00 +9°C° 0 mm 3 mps 693 mmHg 56%
    08:00 +11°C° 0 mm 3 mps 693 mmHg 53%
    09:00 +12°C° 0 mm 3 mps 693 mmHg 50%
    10:00 +13°C° 0 mm 3 mps 693 mmHg 46%
    11:00 +14°C° 0 mm 3 mps 692 mmHg 43%
    12:00 +16°C° 0 mm 3 mps 692 mmHg 39%
    13:00 +16°C° 0 mm 3 mps 692 mmHg 40%
    14:00 +16°C° 0 mm 2 mps 692 mmHg 40%
    15:00 +16°C° 0 mm 2 mps 691 mmHg 40%
    16:00 +15°C° 0 mm 2 mps 691 mmHg 45%
    17:00 +14°C° 0 mm 2 mps 691 mmHg 50%
    18:00 +12°C° 0 mm 2 mps 691 mmHg 55%
    19:00 +12°C° 0 mm 2 mps 691 mmHg 55%
    20:00 +10°C° 0 mm 2 mps 691 mmHg 56%
    21:00 +10°C° 0 mm 2 mps 691 mmHg 57%
    22:00 +10°C° 0 mm 2 mps 691 mmHg 58%
    23:00 +10°C° 0 mm 2 mps 691 mmHg 59%

    21 November, Tuesday

    Time Temperature Precipitation Wind Pressure Humidity
    00:00 +10°C° 0 mm 2 mps 690 mmHg 60%
    01:00 +10°C° 0 mm 1 mps 690 mmHg 61%
    02:00 +10°C° 0 mm 1 mps 690 mmHg 62%
    03:00 +10°C° 0 mm 1 mps 690 mmHg 63%
    04:00 +10°C° 0 mm 1 mps 690 mmHg 64%
    05:00 +10°C° 0 mm 1 mps 689 mmHg 64%
    06:00 +9°C° 0 mm 1 mps 689 mmHg 65%
    07:00 +10°C° 0 mm 1 mps 689 mmHg 62%
    08:00 +12°C° 0 mm 1 mps 689 mmHg 58%
    09:00 +13°C° 0 mm 1 mps 689 mmHg 55%
    10:00 +14°C° 0 mm 1 mps 689 mmHg 51%
    11:00 +15°C° 0 mm 2 mps 689 mmHg 47%
    12:00 +16°C° 0 mm 2 mps 688 mmHg 43%
    13:00 +16°C° 0 mm 2 mps 688 mmHg 44%
    14:00 +15°C° 0 mm 2 mps 688 mmHg 45%
    15:00 +15°C° 0 mm 1 mps 687 mmHg 46%
    16:00 +14°C° 0 mm 1 mps 687 mmHg 50%
    17:00 +13°C° 0 mm 1 mps 687 mmHg 54%
    18:00 +12°C° 0 mm 1 mps 687 mmHg 58%
    19:00 +12°C° 0 mm 1 mps 688 mmHg 60%
    20:00 +12°C° 0 mm 1 mps 688 mmHg 62%
    21:00 +10°C° 0 mm 2 mps 688 mmHg 64%
    22:00 +10°C° 0 mm 2 mps 688 mmHg 65%
    23:00 +10°C° 0 mm 2 mps 687 mmHg 66%

    22 November, Wednesday

    Time Temperature Precipitation Wind Pressure Humidity
    00:00 +10°C° 0 mm 2 mps 687 mmHg 67%
    01:00 +9°C° 0 mm 2 mps 687 mmHg 67%
    02:00 +9°C° 0 mm 2 mps 687 mmHg 68%
    03:00 +9°C° 0 mm 2 mps 687 mmHg 68%
    04:00 +9°C° 0 mm 2 mps 687 mmHg 68%
    05:00 +9°C° 0 mm 2 mps 687 mmHg 68%
    06:00 +9°C° 0 mm 2 mps 687 mmHg 68%
    07:00 +9°C° 0 mm 2 mps 687 mmHg 64%
    08:00 +11°C° 0 mm 1 mps 688 mmHg 61%
    09:00 +12°C° 0 mm 1 mps 688 mmHg 57%
    10:00 +13°C° 0 mm 2 mps 688 mmHg 54%
    11:00 +14°C° 0 mm 2 mps 687 mmHg 52%
    12:00 +14°C° 0 mm 2 mps 687 mmHg 49%
    13:00 +14°C° 0.1 mm 2 mps 687 mmHg 51%
    14:00 +14°C° 0.1 mm 2 mps 687 mmHg 54%
    15:00 +13°C° 0.1 mm 2 mps 687 mmHg 57%
    16:00 +12°C° 0.5 mm 2 mps 688 mmHg 63%
    17:00 +10°C° 0.5 mm 2 mps 688 mmHg 69%
    18:00 +10°C° 0.5 mm 2 mps 688 mmHg 75%
    19:00 +9°C° 0.4 mm 2 mps 688 mmHg 77%
    20:00 +9°C° 0.4 mm 2 mps 689 mmHg 79%
    21:00 +8°C° 0.4 mm 2 mps 689 mmHg 81%
    22:00 +8°C° 0.4 mm 2 mps 689 mmHg 81%
    23:00 +8°C° 0.4 mm 2 mps 689 mmHg 81%
    Show more